Dewpoint
59 59 59 59 58 59 58 58 60 59 60 60 60 60 59 59 59 59 59 59 60 59 59 57 59 59 59 60 59 59 51 25 24 21 16 17 38 54 55 57 58 59 49 23 18 14 14 16 16 21 18 23 24 29 30 28 35 35 32 30 28 30 29 30 28 26 29 20 19 26 35 37 36 35 33 32 31 31 34 36 34 34 31 32 31 36 42 43
59 59 59 58 58 59 58 58 59 59 58 59 59 59 59 59 59 59 59 60 59 57 57 59 58 58 59 59 58 58 38 28 25 23 20 34 51 59 59 58 58 56 50 22 21 16 14 14 17 16 17 22 22 26 26 29 29 31 28 30 30 28 30 29 27 25 21 22 21 27 31 38 37 30 30 31 31 29 33 35 32 34 35 38 41 41 40 42
59 59 58 57 58 58 58 58 58 58 59 59 59 59 59 59 59 59 60 59 59 58 57 58 59 59 59 59 58 56 32 14 15 21 23 54 57 59 56 59 58 52 28 26 25 18 14 13 19 15 15 15 16 22 26 26 26 30 30 27 27 29 29 29 19 21 20 19 20 30 28 38 37 29 29 32 30 27 30 30 31 33 33 34 40 40 39 41
58 58 58 57 58 57 57 58 58 58 59 59 59 59 60 59 59 59 60 60 59 58 59 58 59 58 59 59 57 47 15 14 13 14 21 50 57 56 58 60 57 45 34 28 24 26 19 18 19 16 20 17 20 20 23 25 27 27 28 27 27 29 27 25 25 20 16 22 24 28 28 33 32 28 27 30 26 27 20 29 27 26 27 32 39 40 39 39
57 58 58 57 57 58 57 58 59 59 59 59 59 59 59 59 59 59 59 59 60 59 59 59 59 59 59 58 50 26 19 13 12 21 22 52 54 59 59 58 54 39 34 30 21 17 17 17 16 20 21 18 21 18 18 20 22 28 26 28 24 25 22 24 23 16 14 20 21 22 21 26 27 23 24 23 23 22 19 18 20 23 28 32 37 40 39 39
57 58 58 58 57 56 57 57 57 59 58 59 59 60 60 58 59 59 60 59 59 59 60 59 59 59 58 53 33 23 7 -3 20 18 50 56 55 60 58 56 51 32 22 19 20 15 15 12 13 18 18 15 14 16 17 18 19 20 21 19 22 22 20 19 14 14 13 15 17 19 23 20 22 20 25 16 15 16 18 19 22 27 31 32 37 40 39 39
58 57 57 57 56 56 57 57 57 58 58 58 58 58 58 57 57 59 59 59 59 60 59 59 59 59 57 48 34 20 14 12 22 23 47 55 55 59 54 53 45 29 21 19 17 17 15 12 13 20 16 17 14 13 14 18 19 19 18 20 16 18 16 13 12 15 11 11 12 14 20 17 18 16 22 16 17 19 20 21 30 33 35 36 37 37 39 39
57 57 56 57 57 57 56 56 57 57 57 58 57 57 58 57 57 58 58 59 59 59 60 59 59 58 50 31 23 19 12 10 17 26 45 50 32 44 42 25 28 25 21 20 17 13 14 12 10 18 15 14 19 16 24 20 22 20 18 22 18 15 15 15 14 12 11 11 12 12 10 12 16 15 15 16 17 18 20 24 26 30 33 33 34 35 35 35
57 56 56 57 56 57 57 57 56 56 57 57 57 58 58 58 57 57 58 58 58 59 59 60 58 57 48 24 13 9 8 9 21 24 29 25 22 22 25 19 24 22 22 19 19 17 13 14 14 11 11 18 20 22 22 19 17 21 19 21 22 19 21 21 17 12 14 12 12 9 10 13 14 14 14 18 18 18 22 24 24 25 25 27 28 31 32 33
57 56 56 56 57 57 57 57 57 56 57 57 57 58 58 58 58 58 59 58 58 59 58 60 59 53 31 22 20 2 7 21 20 23 26 24 23 21 21 22 22 22 21 19 17 14 12 11 11 13 17 17 22 20 23 17 18 22 22 22 20 20 20 19 16 13 12 12 11 9 13 16 18 12 15 19 18 20 22 22 22 23 23 23 24 25 25 25
56 56 56 56 56 57 57 57 56 57 57 57 58 58 58 58 58 58 58 58 58 57 59 57 59 48 26 18 11 4 11 20 24 23 25 24 22 21 21 20 23 21 20 18 21 15 15 13 16 17 22 19 19 19 23 22 24 23 22 24 22 21 19 18 17 16 13 12 10 12 13 17 18 18 18 19 19 21 20 20 20 20 20 20 21 21 23 22
56 56 56 56 56 55 56 56 56 57 57 57 57 57 57 58 57 57 58 58 57 57 58 59 52 27 23 18 11 5 15 19 25 24 25 23 22 23 22 21 21 20 19 18 19 20 15 15 16 22 15 21 18 22 22 28 24 23 21 19 21 20 12 18 18 16 15 12 10 13 11 16 18 17 19 19 19 21 19 19 19 18 18 19 19 19 19 20
56 56 56 56 57 56 56 56 56 57 57 57 57 57 57 57 57 57 58 57 57 57 58 57 48 31 23 17 15 17 23 25 23 20 19 24 22 22 23 22 21 21 20 18 17 20 22 22 17 18 23 21 23 18 25 26 26 22 19 19 17 19 16 17 19 13 12 11 13 15 11 16 17 18 19 20 20 19 17 17 16 16 15 15 15 16 16 17
55 54 55 56 57 56 56 56 56 56 56 56 57 57 57 57 57 57 58 57 58 57 59 55 36 30 20 14 18 22 23 27 23 18 18 24 22 21 25 23 23 22 23 20 23 28 29 25 21 27 30 24 22 27 20 22 24 17 20 22 11 9 12 17 19 17 11 13 16 19 10 16 17 18 19 20 20 16 15 14 14 14 14 15 17 17 18 19
55 55 56 56 56 56 55 56 56 56 56 57 57 57 57 57 57 57 57 57 57 58 55 49 33 29 23 21 23 24 46 20 18 18 19 21 21 21 21 23 22 22 23 20 24 32 29 28 25 24 21 29 26 21 18 19 19 23 13 14 19 10 14 19 22 20 11 15 19 22 16 16 17 18 19 20 19 15 14 14 14 15 16 16 17 17 18 18
55 56 56 56 55 55 54 56 56 56 56 57 57 57 56 56 56 56 57 56 54 56 40 34 36 30 24 20 14 38 17 17 17 19 20 23 23 21 23 22 22 20 19 18 29 28 28 26 23 25 24 21 21 20 19 12 15 20 12 11 7 15 17 19 19 21 21 20 19 19 16 17 17 18 19 20 17 15 15 15 16 16 16 16 16 17 17 18
55 56 56 56 56 56 56 56 56 56 56 56 57 56 57 56 57 54 52 52 48 45 31 32 32 28 19 18 20 18 17 17 19 20 19 23 24 23 22 20 19 18 18 19 20 19 19 20 23 22 25 20 21 18 11 14 12 9 18 10 14 11 15 14 23 22 21 20 18 19 17 17 17 18 18 18 18 16 15 15 15 15 15 16 16 16 16 17
55 55 56 55 56 56 56 56 56 56 56 56 57 55 52 55 52 53 45 44 38 38 37 34 27 17 13 18 15 16 19 19 18 19 20 20 25 23 21 20 21 14 16 16 15 15 18 17 24 19 18 21 18 14 8 9 9 3 15 13 15 19 17 18 18 21 19 20 18 17 17 17 17 16 16 16 17 16 15 15 15 15 16 16 15 15 16 16
55 55 55 55 55 55 55 55 56 56 56 54 54 52 48 46 38 34 31 34 22 21 19 20 25 15 11 14 17 19 19 19 19 20 20 22 25 24 26 23 19 14 14 12 15 15 18 20 21 18 16 17 17 16 13 15 15 14 16 15 16 13 16 18 22 20 19 17 18 17 16 16 16 15 16 14 15 16 16 16 15 15 15 15 15 15 15 16
55 55 55 55 55 55 54 56 56 56 54 44 34 37 31 25 26 21 30 29 17 19 19 19 25 24 22 15 20 21 21 18 16 17 21 22 29 19 19 21 24 20 16 14 18 22 23 15 13 13 17 19 19 19 18 14 17 22 21 17 18 17 20 20 20 19 21 18 17 17 17 16 17 17 17 17 15 15 14 14 15 15 15 15 15 15 16 16
54 54 54 55 55 54 55 55 56 56 51 36 33 27 14 14 12 14 16 19 20 29 30 28 29 23 20 20 22 20 18 18 19 19 20 23 22 17 16 19 21 14 16 24 19 24 22 16 17 19 17 17 16 18 21 21 22 19 18 16 17 16 15 17 19 23 24 19 16 17 15 16 17 17 18 19 18 17 15 15 15 15 15 15 15 15 15 15
54 54 54 54 55 55 55 55 57 55 48 39 34 20 21 21 20 18 18 14 20 29 31 31 31 24 24 23 23 20 20 19 17 19 21 20 16 12 19 19 17 14 20 23 19 20 19 18 22 22 21 23 23 21 22 21 21 19 16 16 14 17 19 19 21 22 20 18 16 16 14 15 15 16 17 17 17 17 17 16 15 15 15 15 15 15 16 15
54 53 54 54 55 55 55 55 56 51 39 36 35 36 38 41 43 41 25 20 20 25 29 28 26 24 20 21 24 21 20 20 19 20 21 22 22 20 21 17 19 22 20 21 16 17 12 18 20 21 23 21 20 22 21 21 21 17 15 14 14 18 12 11 20 21 19 19 16 15 13 14 15 16 16 17 15 15 15 15 16 16 15 15 15 15 15 15
53 53 53 54 54 55 55 55 52 46 41 37 39 38 40 41 41 35 24 17 13 24 29 28 26 23 19 19 19 22 21 22 20 19 24 22 22 21 22 21 21 20 18 23 18 15 13 20 22 22 23 19 19 20 19 18 17 20 17 16 16 15 15 16 16 17 18 18 17 13 11 12 13 14 14 15 16 14 15 15 15 16 17 16 16 16 15 14
53 53 53 53 54 55 54 49 41 40 41 33 38 41 42 42 43 36 25 18 20 23 30 29 28 26 22 23 25 23 23 22 23 22 24 23 24 21 20 23 20 16 19 25 22 22 22 23 23 20 20 18 18 19 20 18 16 17 18 18 16 14 16 16 16 15 14 14 16 12 7 10 14 13 13 14 14 14 14 14 15 15 16 16 15 15 15 14
52 52 53 54 54 54 52 30 23 39 37 34 35 43 41 39 40 31 21 15 7 17 22 22 27 20 22 19 26 24 21 20 23 23 32 27 27 22 20 18 18 17 20 24 23 21 20 21 23 22 19 18 18 17 17 20 15 11 11 19 16 15 16 15 15 11 9 9 15 16 8 -1 11 12 13 14 14 13 14 14 14 15 15 15 15 15 14 13
52 52 53 53 54 54 26 24 29 36 23 30 43 42 42 41 40 37 24 10 4 16 16 24 21 21 23 24 24 19 10 11 18 24 24 29 24 29 18 18 20 25 24 24 18 13 22 19 18 18 18 18 16 14 17 17 15 12 17 17 16 16 14 14 14 13 14 16 14 15 10 5 7 9 14 14 13 13 13 13 14 15 15 15 15 14 14 13
52 52 52 53 53 52 29 29 26 28 23 29 41 41 40 40 42 34 15 -11 -13 22 19 23 24 28 22 24 23 16 15 19 18 22 25 28 30 25 19 18 16 17 22 18 7 17 21 21 18 17 18 17 16 16 16 18 14 16 19 20 18 17 16 15 14 12 13 9 11 14 11 7 4 11 14 13 12 12 11 12 13 15 15 16 16 16 14 13
52 52 52 53 53 49 37 31 29 29 32 40 38 40 40 34 34 22 0 -12 -9 16 25 22 29 21 23 24 21 23 22 21 14 18 26 27 24 21 18 19 20 21 22 21 18 18 22 21 19 18 18 17 17 18 20 18 15 17 20 18 17 16 16 14 12 11 10 8 6 12 11 6 5 12 12 13 11 11 11 12 12 14 16 16 16 16 15 14
52 52 53 53 44 36 36 34 32 32 40 40 40 39 36 34 23 8 -9 -17 15 3 23 19 15 14 24 21 20 20 16 18 25 24 25 21 21 23 25 26 22 19 17 19 21 21 20 28 28 20 17 18 17 18 20 17 17 21 16 13 12 9 14 12 9 7 6 4 8 9 12 8 2 10 12 11 12 14 12 11 11 12 15 16 17 16 15 13
52 52 52 52 35 32 29 25 26 40 41 44 39 36 31 21 13 1 -15 -3 17 14 19 18 18 23 22 17 14 20 21 21 18 24 21 22 18 21 21 20 21 16 15 13 17 19 23 23 20 21 27 21 19 18 20 20 21 17 14 10 8 8 1 8 6 6 3 2 -1 5 12 10 4 8 12 14 14 15 14 10 9 10 13 16 17 16 15 14
51 52 52 47 41 41 24 26 30 42 42 41 36 29 23 5 16 -5 -11 16 3 11 7 13 20 20 19 20 17 16 16 17 19 22 20 19 17 17 17 13 15 4 5 6 6 10 20 20 23 23 30 17 17 13 13 17 16 14 11 10 1 3 -5 -8 -1 -2 -0 -1 7 7 9 9 11 11 13 13 14 14 13 11 10 10 12 15 17 17 16 14
52 52 50 46 44 35 33 31 41 42 40 37 30 23 8 7 -17 -1 1 8 -3 13 12 20 19 19 18 12 12 17 19 8 16 16 22 20 18 16 18 17 17 3 -2 6 8 3 3 9 14 19 14 21 15 8 9 8 8 12 10 5 1 -7 -12 -11 -5 -7 -5 3 5 7 7 7 11 12 12 12 13 15 14 12 12 12 12 14 16 17 15 13
51 50 42 42 38 38 39 40 40 41 35 35 32 13 3 -15 -19 19 4 9 8 20 21 19 19 15 15 10 13 17 5 8 14 14 20 17 19 16 19 19 18 14 10 10 4 6 -4 1 -1 13 10 17 18 11 11 11 13 12 11 4 1 -2 -5 -5 -14 -6 -5 -0 6 6 4 -3 7 8 12 13 15 15 14 13 12 11 12 15 17 16 14 13
51 45 42 39 39 41 39 38 40 41 36 30 15 13 -6 -12 -6 -1 3 11 18 19 16 19 15 6 5 9 10 14 7 6 13 14 15 16 15 17 17 18 20 16 15 5 3 5 5 1 -1 11 12 17 16 20 14 9 10 14 13 14 5 1 5 -2 -4 -6 -9 -1 1 2 0 7 10 13 16 14 13 14 16 14 14 12 11 12 17 17 14 12
45 42 39 33 39 39 38 38 36 37 30 21 14 6 -4 -2 -2 9 16 19 18 16 18 12 7 7 5 10 10 10 11 5 9 11 10 18 18 15 18 17 18 19 13 5 1 -0 7 0 11 14 18 16 16 19 16 17 3 10 9 3 7 14 7 -1 2 2 3 -0 -5 2 9 9 10 11 10 11 11 12 14 15 16 13 11 9 10 15 12 11
37 34 26 30 31 38 40 40 37 32 24 18 13 -4 4 14 5 8 30 20 19 20 12 4 1 3 3 4 5 10 11 7 7 8 6 13 8 17 17 18 20 21 21 13 9 4 2 5 11 13 14 18 17 20 17 17 14 8 3 9 13 14 13 6 1 -5 -9 -2 -2 5 6 6 7 -4 10 10 11 12 13 15 17 11 10 9 8 11 13 10
35 33 31 30 35 40 39 40 35 26 24 21 18 26 22 14 21 26 25 25 21 18 10 3 1 6 0 6 9 8 14 7 9 9 5 9 9 17 18 18 18 22 22 21 4 8 9 5 9 8 12 15 12 18 10 14 18 14 12 14 9 1 1 7 -0 -5 -3 -3 -4 1 4 5 8 9 9 10 11 11 11 12 14 12 10 9 6 5 12 8
30 31 23 25 38 38 40 34 29 27 18 16 11 20 16 20 23 24 24 26 21 17 11 11 4 7 6 7 8 10 9 9 9 10 3 9 4 14 17 18 15 22 23 22 16 17 11 2 8 8 14 13 8 11 3 10 12 14 15 11 14 10 1 4 2 5 7 3 4 6 5 5 9 12 10 10 10 10 9 11 10 9 10 7 4 4 10 7
26 21 18 28 34 37 37 33 24 19 16 9 6 10 15 22 25 27 25 25 19 10 10 9 14 7 10 10 10 8 11 10 11 10 10 10 8 19 19 22 19 22 22 21 15 17 12 6 -0 5 8 7 6 10 9 10 6 12 11 9 12 7 11 11 5 9 10 5 4 3 4 3 11 10 10 9 9 9 10 8 8 7 8 5 2 6 9 4
27 23 22 30 32 36 32 24 18 17 16 14 20 22 25 22 26 24 24 26 27 23 13 12 14 11 11 11 6 15 12 14 13 10 12 9 12 7 21 23 24 22 23 16 17 18 6 8 3 8 9 6 6 10 14 13 12 11 12 9 11 7 10 8 8 7 7 8 7 4 7 7 9 8 8 8 8 8 7 7 6 5 6 3 2 8 7 0
16 11 15 26 31 32 27 19 14 20 18 14 10 20 29 34 22 23 23 23 21 21 21 18 18 15 18 16 13 14 16 12 14 9 12 9 14 16 18 18 23 23 22 16 17 18 17 12 8 5 9 9 10 11 16 14 11 10 11 10 10 7 6 7 4 5 4 6 7 5 5 2 9 9 7 6 6 7 6 5 5 4 4 3 2 8 3 -3
20 13 21 29 29 26 14 7 21 21 16 20 18 23 24 23 22 22 20 22 16 20 15 19 20 11 13 18 17 16 15 10 14 11 12 12 15 19 21 22 22 22 22 17 14 18 20 4 -0 6 2 0 8 8 16 14 15 11 9 8 10 6 7 8 6 6 4 3 3 -1 1 2 8 11 7 7 7 6 6 5 5 4 4 3 2 6 -0 -3
22 20 20 29 28 28 15 -1 7 16 21 23 21 22 20 26 22 21 20 23 19 16 14 17 15 16 16 19 18 16 18 3 10 12 12 14 15 19 19 20 21 22 18 17 14 20 3 5 6 -1 -6 3 2 3 10 11 13 10 6 7 6 5 3 2 3 0 4 -0 6 3 1 0 8 8 8 7 6 5 5 5 5 4 3 1 3 2 -1 -3
19 20 23 25 25 23 12 14 16 10 15 11 13 13 16 19 25 25 23 22 23 18 15 17 19 20 19 19 18 19 19 13 10 11 11 12 13 19 18 17 15 21 23 24 29 27 4 5 4 -1 -1 -1 1 2 5 6 7 12 6 6 7 5 4 8 4 -1 2 3 5 1 -1 6 9 8 7 6 5 5 5 5 5 4 2 -0 2 -2 -2 -4
11 5 17 19 20 22 23 23 20 17 10 6 10 10 16 13 16 20 24 24 22 22 20 19 20 19 17 15 15 16 15 17 13 11 9 11 11 12 20 15 20 23 26 26 24 14 5 8 6 1 1 4 8 8 9 14 10 6 6 5 7 3 0 4 2 -2 -0 0 2 3 5 7 7 7 7 6 5 5 5 4 3 2 0 0 -1 -2 -1 -4
15 16 10 11 20 19 18 21 22 20 11 15 10 13 10 16 16 20 23 16 21 20 22 19 19 16 17 15 14 12 14 14 13 10 10 10 12 13 13 17 18 21 27 28 19 5 -0 4 7 5 5 8 10 11 9 14 7 7 3 6 7 7 5 3 3 2 5 2 1 6 8 5 6 6 6 6 5 5 4 3 2 1 -1 -1 -2 -3 2 -4
12 12 16 14 14 9 17 15 20 19 20 20 13 15 15 15 17 13 17 22 23 22 9 9 19 20 20 18 15 10 16 11 13 9 9 9 10 16 13 15 16 20 21 16 13 8 4 8 11 7 3 6 7 7 9 9 8 8 7 7 6 7 6 3 2 6 6 1 3 6 7 6 6 5 5 5 5 4 2 1 1 0 -0 -1 -3 -3 -4 -5
18 18 21 21 11 14 15 16 23 20 19 21 22 19 16 17 16 18 18 18 10 14 17 11 19 21 21 21 17 12 15 6 8 9 11 13 11 11 10 10 16 17 16 13 14 2 7 6 11 5 5 6 8 8 8 8 8 8 6 8 8 6 5 4 6 7 6 5 7 7 7 6 6 5 5 5 4 2 1 1 0 -1 -1 -2 -3 -4 -5 -5
16 13 10 22 21 20 19 18 21 18 17 21 12 15 20 19 19 21 21 17 13 16 22 20 21 21 22 21 18 13 17 14 11 11 11 14 7 9 9 11 13 17 15 12 10 12 5 2 12 4 3 1 7 8 7 8 7 6 8 8 8 7 6 5 2 5 5 1 4 6 5 4 6 6 5 4 3 2 1 1 1 0 -2 -2 -4 -5 -5 -6
23 20 22 18 16 17 20 17 15 17 16 18 16 16 20 19 21 21 21 22 20 21 23 22 23 21 20 21 20 19 22 21 16 15 17 12 11 17 8 9 17 11 11 10 9 10 10 5 -5 -4 -7 -5 7 6 8 7 7 3 3 7 7 7 3 6 1 5 3 1 4 1 -1 -1 7 5 4 3 2 1 0 1 0 -1 -3 -4 -4 -5 -6 -7
28 30 24 19 12 19 14 15 16 18 14 11 21 20 20 21 21 21 14 17 24 25 23 24 23 19 18 19 20 22 23 23 23 23 22 20 20 18 19 19 18 12 8 7 4 6 5 3 0 -3 -8 -13 3 5 6 6 2 -4 -4 6 7 7 7 6 7 7 7 7 2 -2 -0 5 5 5 2 2 1 1 1 1 0 -3 -5 -5 -5 -5 -6 -7